Regional Weather Roundup
Issued by NWS

Home | Current Version | Previous Version | Text Only | Print | Product List | Glossary Off
Versions: 1 2 3 4 5 6 7 8 9 10 11 12 13 14 15 16 17 18 19 20 21 22 23 24 25 26 27 28 29 30 31 32 33 34 35 36 37 38 39 40 41 42 43 44 45 46 47 48 49 50

000
ASUS43 KLMK 230802
RWRKY
KENTUCKY REGIONAL WEATHER ROUNDUP
NATIONAL WEATHER SERVICE LOUISVILLE KY
400 AM EDT WED MAY 23 2018

NOTE "FAIR" INDICATES FEW OR NO CLOUDS BELOW 12,000 FEET
WITH NO SIGNIFICANT WEATHER AND/OR OBSTRUCTIONS TO VISIBILITY.

KYZ001>023-026-027-061>063-070>075-230900-
WESTERN AND SOUTH CENTRAL KENTUCKY

CITY           SKY/WX    TMP DP  RH WIND       PRES   REMARKS
PADUCAH        FAIR      68  66  93 CALM      30.03F
HENDERSON      NOT AVBL
OWENSBORO      FAIR      69  67  93 W5        30.03S
HOPKINSVILLE   FAIR      69  69 100 CALM      30.03F
BOWLING GREEN  FAIR      69  68  96 SW3       30.03F
GLASGOW        NOT AVBL
$$

KYZ024-025-028>034-038-045-046-053-230900-
NORTH CENTRAL KENTUCKY

CITY           SKY/WX    TMP DP  RH WIND       PRES   REMARKS
LOUISVILLE/SDF MOCLDY    73  64  73 N8        30.03R
LOUISVILLE/LOU FAIR      71  67  87 N7        30.04R
FORT KNOX      FAIR      66  66 100 NW3       30.04S
$$

KYZ035>037-039>044-047>052-055>060-089>105-230900-
NORTHEAST KENTUCKY

CITY           SKY/WX    TMP DP  RH WIND       PRES   REMARKS
LEXINGTON      MOCLDY    68  64  87 CALM      30.06R
COVINGTON      FAIR      64  58  80 N6        30.07R
FRANKFORT      MOCLDY    68  65  90 CALM      30.04R
$$

KYZ054-064>069-076>088-106>120-230900-
SOUTHEAST KENTUCKY

CITY           SKY/WX    TMP DP  RH WIND       PRES   REMARKS
JACKSON        MOCLDY    66  64  93 CALM      30.06S
LONDON         FOG       62  62 100 CALM      30.07S VSB 3/4
SOMERSET       NOT AVBL
MIDDLESBORO    FOG       65  65 100 CALM      30.08S VSB 1/2
MONTICELLO     CLOUDY    63  62  97 W7        30.08R FOG
$$





USA.gov is the U.S. government's official web portal to all federal, state and local government web resources and services.